Location: *
(43.1285°S, 179.7529°W)
Time: 20:50:29
(UTC+00:00)

Daily predictions for brighter satellites

Satellite Brightness Start Highest point End
(mag) Time Altitude Azimuth Time Altitude Azimuth Time Altitude Azimuth
ATLAS 5 CENTAUR R/B 3.7 15:13:49 42° SE 15:13:49 42° SE 15:18:12 10° SE
Cosmos 1697 Rocket 4.1 15:29:32 36° ESE 15:29:32 36° ESE 15:33:26 10° SE
ACS3 Solar Sail 4.4 15:31:10 10° E 15:35:02 17° ESE 15:38:56 10° SSE
Cosmos 2263 Rocket 4.3 15:39:34 14° S 15:43:02 23° SE 15:47:26 10° ENE
SL-16 R/B 3.5 15:40:07 10° SSE 15:46:09 44° E 15:51:35 12° N
Cosmos 2227 Rocket 2.8 15:56:45 51° SSE 15:57:28 55° ESE 16:03:01 10° NE
Cosmos 1802 Rocket 3.9 16:09:41 82° W 16:09:41 82° W 16:16:14 10° S
CZ-3 Stage 3 4.5 16:12:56 25° NNW 16:18:06 42° NNE 16:46:29 10° E
Cosmos 1980 Rocket 2.6 16:26:19 19° N 16:30:17 63° ENE 16:35:57 10° SSE
UNK 4.2 16:26:03 10° SSE 16:30:39 59° E 16:35:12 10° N
Cosmos 2061 Rocket 4.0 16:24:56 10° N 16:31:20 85° E 16:37:43 10° S
SL-8 R/B 3.7 16:32:06 69° NNE 16:32:06 69° NNE 16:36:29 10° NE
SL-4 R/B 2.3 16:34:29 64° SE 16:34:29 64° SE 16:38:06 10° ESE
Cosmos 1271 Rocket 4.3 16:34:10 10° S 16:37:26 31° ESE 16:40:38 10° NE
USA 305 3.5 16:37:47 42° NE 16:37:58 42° NE 16:41:49 10° ESE
NOSS 3-4 (A) 3.7 16:41:26 46° WNW 16:41:26 46° WNW 16:47:03 10° N
NOSS 3-4 (C) 3.7 16:41:29 47° WNW 16:41:33 47° WNW 16:47:11 10° N
Meteor 2-10 Rocket 3.7 16:40:22 49° NW 16:41:41 61° WSW 16:47:29 10° S
ARIANE 5 R/B 3.1 16:37:14 10° NNE 16:42:09 55° ESE 16:47:07 10° S
Thor Agena Rocket 3.9 16:40:50 10° N 16:44:55 45° NW 16:44:55 45° NW
Cosmos 1933 Rocket 3.5 16:44:50 10° N 16:49:18 85° E 16:53:50 10° S
Cosmos 2016 Rocket 4.1 16:47:36 39° WNW 16:49:23 49° WSW 16:55:35 10° S
IRAS Rocket 4.1 16:46:15 10° N 16:51:51 75° WNW 16:57:29 10° SSW
DMSP B5D2-2 4.3 16:47:50 10° S 16:52:51 45° WSW 16:52:53 45° WSW
Meteor 1-24 Rocket 3.6 16:47:51 10° S 16:53:18 80° E 16:58:38 10° NNE
ATLAS 5 CENTAUR R/B 3.5 16:53:49 30° SW 16:55:01 32° SW 17:01:03 10° SSE
CZ-3 R/B 3.9 16:47:42 24° WNW 16:57:44 37° NNW 17:05:22 10° NE
Meteor 1-15 Rocket 4.2 16:52:31 10° N 16:58:18 84° W 17:04:03 10° S
Cosmos 1869 Rocket 3.8 16:55:58 10° N 17:00:26 72° E 17:04:57 10° SSE
Cosmos 2219 3.3 16:55:28 10° SSW 17:01:10 77° ESE 17:06:48 10° NNE
Cosmos 1725 Rocket 4.5 17:02:45 33° WNW 17:04:14 37° WSW 17:10:05 10° S
Centaur D AC-29 4.0 16:59:18 16° NW 17:04:49 36° NNE 17:44:14 10° ENE
USA 234 4.2 17:05:36 10° ESE 17:11:58 48° NE 17:18:17 10° NNW
Cosmos 1697 Rocket 3.4 17:11:19 30° WSW 17:12:09 31° SW 17:17:13 10° S
Cosmos 2084 3.4 17:12:36 26° SW 17:15:06 83° NW 17:19:35 10° NNE
Cosmos 1140 Rocket 3.4 17:09:51 10° SSW 17:15:07 88° WNW 17:20:21 10° NNE
SMAP 3.3 17:12:28 10° NNE 17:17:08 72° ESE 17:21:52 10° S
ACS3 Solar Sail 1.8 17:11:15 10° NNE 17:17:31 88° WNW 17:23:57 10° SSW
Cosmos 1953 2.4 17:14:43 10° N 17:18:26 71° E 17:22:15 10° SSE
Intercosmos 24 4.4 17:15:05 10° S 17:18:40 58° E 17:22:43 10° NNE
IGS 5A 4.0 17:14:44 10° NNE 17:18:43 58° ESE 17:22:45 10° S
Meteor 2-5 Rocket 3.7 17:13:46 10° SSW 17:19:27 65° W 17:24:59 10° N
Cosmos 1703 Rocket 4.0 17:17:07 13° SSW 17:20:37 37° W 17:24:42 10° NNW
BREEZE-M DEB (TANK) 3.0 17:23:14 25° WSW 17:25:32 41° SSW 17:28:10 10° SE
ERS-1 4.5 17:20:40 10° N 17:25:51 72° WNW 17:31:08 10° SSW
CZ-4C R/B 3.0 17:18:04 10° NW 17:26:55 74° SW 17:34:15 10° SSE
Cosmos 2263 Rocket 2.2 17:21:50 10° SSW 17:27:23 60° WNW 17:32:50 10° N
USA 276 1.5 17:27:01 54° W 17:27:28 76° NNW 17:30:14 10° NE
SJ-6F 4.4 17:23:31 10° NNE 17:27:38 86° ESE 17:31:47 10° SSW
CORIOLIS 4.1 17:22:53 10° NNE 17:28:20 87° WNW 17:33:50 10° SSW
SL-16 R/B 3.2 17:23:57 10° S 17:29:31 33° WSW 17:35:00 10° NW
Cosmos 1328 3.5 17:26:26 10° S 17:30:11 89° WSW 17:33:56 10° N
USA 290 3.9 17:35:21 10° S 17:38:31 36° ESE 17:41:39 10° NE
COSMO-SKYMED 1 4.3 17:34:48 10° SSE 17:38:52 37° E 17:42:53 10° NNE
Cosmos 2227 Rocket 3.3 17:38:40 17° WSW 17:41:03 23° W 17:45:21 10° NNW
SJ-12 4.2 17:38:32 10° N 17:42:13 40° W 17:45:59 10° SSW
Cosmos 1733 Rocket 3.2 17:39:46 10° N 17:44:12 79° E 17:48:43 10° S
SL-19 R/B 3.5 17:41:38 10° NNE 17:44:28 89° WNW 17:47:33 10° SSW
Cosmos 2082 3.7 17:40:35 10° SSW 17:46:12 64° WNW 17:51:44 10° N
RESURS DK-1 2.6 17:44:13 10° SSW 17:48:16 70° ESE 17:52:16 10° NNE
Cosmos 1461 2.9 17:46:06 15° SW 17:48:49 43° WNW 17:52:12 10° N
IRS-P3 4.4 17:46:28 10° N 17:51:39 48° W 17:56:53 10° SSW
Landsat 7 4.3 17:48:20 10° NNE 17:52:59 65° ESE 17:57:41 10° S
Cosmos 1900 4.4 17:50:50 10° NNW 17:55:56 83° WSW 18:01:00 10° SSE
CZ-2D R/B 4.1 17:53:53 10° NNW 17:56:37 23° W 17:59:25 10° SW
Meteor 2-12 Rocket 4.4 17:50:53 10° S 17:57:06 82° W 18:03:11 10° N
SL-16 R/B 2.6 17:52:26 10° NNW 17:58:05 72° ENE 18:03:48 10° SSE
SJ-7 4.3 17:54:54 10° NNE 17:58:50 90° ESE 18:02:48 10° SSW
Cosmos 2034 Rocket 4.1 17:53:53 10° N 18:00:05 86° E 18:06:25 10° S
BREEZE-M DEB (TANK) 4.1 17:43:20 10° WNW 18:02:36 60° SSW 18:06:39 10° ESE
USA 305 3.3 18:03:32 10° W 18:07:11 37° SSW 18:10:55 10° SE
Cosmos 2369 4.3 18:06:16 10° WNW 18:11:24 35° SW 18:16:37 10° S
Cosmos 1271 Rocket 4.2 18:09:47 10° SW 18:11:52 15° W 18:13:55 10° NW
SL-4 R/B 3.1 18:08:37 10° WSW 18:12:23 30° SSW 18:16:04 10° SE
Cosmos 2278 3.7 18:08:17 10° NNW 18:13:57 83° WSW 18:19:44 10° SSE
Cosmos 1980 Rocket 3.3 18:10:18 10° WNW 18:14:45 23° SW 18:19:14 10° S
PSLV R/B 3.6 18:10:36 10° N 18:14:46 59° W 18:19:00 10° SSW
Cosmos 1818 4.1 18:10:01 10° SW 18:15:00 38° WNW 18:19:58 10° N
SL-24 R/B 3.8 18:11:47 10° N 18:15:25 56° W 18:19:16 10° SSW
Cosmos 2333 Rocket 3.0 18:10:52 10° N 18:16:24 58° ENE 18:22:01 10° SSE
Cosmos 1844 4.3 18:10:41 10° SSW 18:16:30 64° ESE 18:22:16 10° NE
Cosmos 1190 Rocket 4.1 18:12:38 10° SSW 18:17:55 89° WNW 18:23:08 10° NNE
USA 81 4.1 18:13:32 10° SSW 18:18:47 60° W 18:23:59 10° N
Cosmos 2322 Rocket 2.8 18:15:24 10° N 18:20:58 66° ENE 18:26:35 10° SSE
